Weather History for Dyersburg, TN

Change the Weather History Date:

Sunday, April 21, 2013

  Actual Average Record
Temperature  
Mean Temperature 55 °F -  
Max Temperature 66 °F 68 °F 84 °F (2005)
Min Temperature 44 °F 51 °F 42 °F (2009)
Degree Days  
Heating Degree Days 10    
Growing Degree Days 5 (Base 50)    
Moisture  
Dew Point 32 °F    
Average Humidity 42    
Maximum Humidity 57    
Minimum Humidity 30    
Precipitation  
Precipitation 0.00 in - - ()
Sea Level Pressure  
Sea Level Pressure 30.31 in    
Wind  
Wind Speed 6 mph (ENE)    
Max Wind Speed 15 mph    
Max Gust Speed 22 mph    
Visibility 10 miles    
Events      
Averages and records for this station are not official NWS values.
T = Trace of Precipitation, MM = Missing Value Source: NWS Daily Summary

Daily Weather History Graph

Daily Weather History Graph

Search for Another Location

Airport:

Trip Planner

Search our weather history database for the weather conditions in past years. The results will help you decide how hot, cold, wet, or windy it might be!

Date:

Astronomy

Apr. 21, 2013 Rise Set
Actual Time 6:16 AM CDT 7:36 PM CDT
Civil Twilight 5:49 AM CDT 8:03 PM CDT
Nautical Twilight 5:17 AM CDT 8:35 PM CDT
Astronomical Twilight 4:44 AM CDT 9:09 PM CDT
Moon 3:29 PM CDT (4/21) 3:30 AM CDT (4/21)
Length of Visible Light 14h 13m
Length of Day
13h 20m
Waxing Gibbous, 80% of the Moon is Illuminated
Apr 21
Waxing Gibbous
Apr 25
Full
May 2
Last Quarter
May 9
New
May 17
First Quarter

Hourly Weather History & Observations

Time (CDT) Temp. Windchill Dew Point Humidity Pressure Visibility Wind Dir Wind Speed Gust Speed Precip Events Conditions
12:15 AM 50.0 °F - 30.2 °F 47% 30.30 in 10.0 mi ENE 4.6 mph - N/A   Clear
12:35 AM 50.0 °F - 30.2 °F 47% 30.30 in 10.0 mi ENE 3.5 mph - N/A   Clear
12:55 AM 50.0 °F - 30.2 °F 47% 30.31 in 10.0 mi East 3.5 mph - N/A   Clear
1:15 AM 48.2 °F - 30.2 °F 50% 30.31 in 10.0 mi East 3.5 mph - N/A   Clear
1:35 AM 48.2 °F - 30.2 °F 50% 30.31 in 10.0 mi ENE 4.6 mph - N/A   Clear
1:55 AM 46.4 °F 43.5 °F 30.2 °F 53% 30.32 in 10.0 mi ENE 5.8 mph - N/A   Clear
2:15 AM 46.4 °F 43.5 °F 30.2 °F 53% 30.31 in 10.0 mi ENE 5.8 mph - N/A   Clear
2:35 AM 46.4 °F 43.5 °F 30.2 °F 53% 30.32 in 10.0 mi ENE 5.8 mph - N/A   Clear
2:55 AM 46.4 °F 43.5 °F 30.2 °F 53% 30.32 in 10.0 mi ENE 5.8 mph - N/A   Clear
3:15 AM 46.4 °F 43.5 °F 30.2 °F 53% 30.31 in 10.0 mi East 5.8 mph - N/A   Clear
3:35 AM 46.4 °F 43.5 °F 30.2 °F 53% 30.32 in 10.0 mi East 5.8 mph - N/A   Clear
3:55 AM 46.4 °F 42.9 °F 30.2 °F 53% 30.32 in 10.0 mi East 6.9 mph - N/A   Clear
4:15 AM 46.4 °F 42.9 °F 30.2 °F 53% 30.32 in 10.0 mi ENE 6.9 mph - N/A   Clear
4:35 AM 46.4 °F 43.5 °F 30.2 °F 53% 30.32 in 10.0 mi ENE 5.8 mph - N/A   Clear
4:55 AM 46.4 °F 43.5 °F 30.2 °F 53% 30.32 in 10.0 mi ENE 5.8 mph - N/A   Clear
5:15 AM 44.6 °F 40.7 °F 30.2 °F 57% 30.33 in 10.0 mi ENE 6.9 mph - N/A   Clear
5:35 AM 44.6 °F 42.2 °F 30.2 °F 57% 30.33 in 10.0 mi ENE 4.6 mph - N/A   Clear
5:55 AM 44.6 °F 41.4 °F 28.4 °F 53% 30.34 in 10.0 mi ENE 5.8 mph - N/A   Clear
6:15 AM 44.6 °F 40.7 °F 28.4 °F 53% 30.34 in 10.0 mi ENE 6.9 mph - N/A   Clear
6:35 AM 44.6 °F 41.4 °F 28.4 °F 53% 30.35 in 10.0 mi ENE 5.8 mph - N/A   Clear
6:55 AM 44.6 °F 42.2 °F 30.2 °F 57% 30.36 in 10.0 mi ENE 4.6 mph - N/A   Clear
7:15 AM 44.6 °F 40.7 °F 30.2 °F 57% 30.37 in 10.0 mi ENE 6.9 mph - N/A   Clear
7:35 AM 46.4 °F 42.4 °F 30.2 °F 53% 30.38 in 10.0 mi ENE 8.1 mph - N/A   Clear
7:55 AM 48.2 °F - 30.2 °F 50% 30.38 in 10.0 mi ENE 8.1 mph - N/A   Clear
8:15 AM 48.2 °F - 30.2 °F 50% 30.38 in 10.0 mi ENE 9.2 mph - N/A   Clear
8:35 AM 51.8 °F - 32.0 °F 47% 30.38 in 10.0 mi ENE 6.9 mph - N/A   Clear
8:55 AM 51.8 °F - 32.0 °F 47% 30.38 in 10.0 mi East 6.9 mph - N/A   Clear
9:15 AM 55.4 °F - 33.8 °F 44% 30.38 in 10.0 mi ENE 9.2 mph - N/A   Clear
9:35 AM 55.4 °F - 32.0 °F 41% 30.39 in 10.0 mi ESE 4.6 mph - N/A   Clear
9:55 AM 57.2 °F - 33.8 °F 41% 30.39 in 10.0 mi ESE 8.1 mph - N/A   Clear
10:15 AM 57.2 °F - 33.8 °F 41% 30.39 in 10.0 mi East 4.6 mph - N/A   Clear
10:35 AM 59.0 °F - 33.8 °F 39% 30.39 in 10.0 mi ENE 6.9 mph - N/A   Clear
10:55 AM 60.8 °F - 33.8 °F 36% 30.38 in 10.0 mi NE 8.1 mph - N/A   Clear
11:15 AM 60.8 °F - 33.8 °F 36% 30.38 in 10.0 mi ENE 4.6 mph - N/A   Clear
11:35 AM 60.8 °F - 33.8 °F 36% 30.37 in 10.0 mi ENE 10.4 mph - N/A   Clear
11:55 AM 62.6 °F - 35.6 °F 37% 30.37 in 10.0 mi East 6.9 mph - N/A   Clear
12:15 PM 62.6 °F - 35.6 °F 37% 30.36 in 10.0 mi NE 12.7 mph 18.4 mph N/A   Clear
12:35 PM 62.6 °F - 35.6 °F 37% 30.35 in 10.0 mi East 9.2 mph 19.6 mph N/A   Clear
12:55 PM 62.6 °F - 35.6 °F 37% 30.33 in 10.0 mi NNE 9.2 mph - N/A   Clear
1:15 PM 64.4 °F - 35.6 °F 34% 30.33 in 10.0 mi ENE 9.2 mph - N/A   Clear
1:35 PM 64.4 °F - 35.6 °F 34% 30.32 in 10.0 mi NNE 13.8 mph 19.6 mph N/A   Clear
1:55 PM 64.4 °F - 35.6 °F 34% 30.31 in 10.0 mi NE 9.2 mph 18.4 mph N/A   Clear
2:15 PM 64.4 °F - 33.8 °F 32% 30.30 in 10.0 mi NE 15.0 mph - N/A   Clear
2:35 PM 64.4 °F - 33.8 °F 32% 30.29 in 10.0 mi NNE 11.5 mph 18.4 mph N/A   Clear
2:55 PM 64.4 °F - 35.6 °F 34% 30.28 in 10.0 mi NE 9.2 mph 18.4 mph N/A   Clear
3:15 PM 64.4 °F - 35.6 °F 34% 30.27 in 10.0 mi ENE 5.8 mph - N/A   Clear
3:35 PM 64.4 °F - 33.8 °F 32% 30.26 in 10.0 mi East 11.5 mph - N/A   Clear
3:55 PM 66.2 °F - 35.6 °F 32% 30.25 in 10.0 mi NE 9.2 mph - N/A   Clear
4:15 PM 66.2 °F - 35.6 °F 32% 30.24 in 10.0 mi NNE 12.7 mph 21.9 mph N/A   Clear
4:35 PM 64.4 °F - 33.8 °F 32% 30.24 in 10.0 mi NE 12.7 mph 19.6 mph N/A   Clear
4:55 PM 66.2 °F - 33.8 °F 30% 30.24 in 10.0 mi ENE 11.5 mph - N/A   Clear
5:15 PM 66.2 °F - 33.8 °F 30% 30.24 in 10.0 mi East 9.2 mph - N/A   Clear
5:35 PM 64.4 °F - 33.8 °F 32% 30.24 in 10.0 mi NE 8.1 mph - N/A   Clear
5:55 PM 64.4 °F - 33.8 °F 32% 30.25 in 10.0 mi ENE 9.2 mph - N/A   Clear
6:15 PM 64.4 °F - 32.0 °F 30% 30.24 in 10.0 mi NE 9.2 mph - N/A   Clear
6:35 PM 62.6 °F - 32.0 °F 32% 30.24 in 10.0 mi ENE 11.5 mph - N/A   Clear
6:55 PM 62.6 °F - 33.8 °F 34% 30.23 in 10.0 mi NE 9.2 mph - N/A   Clear
7:15 PM 62.6 °F - 33.8 °F 34% 30.24 in 10.0 mi NE 8.1 mph - N/A   Clear
7:35 PM 60.8 °F - 33.8 °F 36% 30.24 in 10.0 mi NE 5.8 mph - N/A   Clear
7:55 PM 59.0 °F - 32.0 °F 36% 30.24 in 10.0 mi NE 5.8 mph - N/A   Clear
8:15 PM 57.2 °F - 32.0 °F 38% 30.24 in 10.0 mi NE 5.8 mph - N/A   Clear
8:35 PM 57.2 °F - 32.0 °F 38% 30.24 in 10.0 mi ENE 4.6 mph - N/A   Clear
8:55 PM 57.2 °F - 32.0 °F 38% 30.25 in 10.0 mi ENE 3.5 mph - N/A   Clear
9:15 PM 57.2 °F - 33.8 °F 41% 30.25 in 10.0 mi ENE 4.6 mph - N/A   Clear
9:35 PM 55.4 °F - 33.8 °F 44% 30.26 in 10.0 mi NE 4.6 mph - N/A   Clear
9:55 PM 55.4 °F - 32.0 °F 41% 30.26 in 10.0 mi ENE 4.6 mph - N/A   Clear
10:15 PM 55.4 °F - 32.0 °F 41% 30.26 in 10.0 mi ENE 5.8 mph - N/A   Clear
10:35 PM 53.6 °F - 30.2 °F 41% 30.26 in 10.0 mi ENE 4.6 mph - N/A   Clear
10:55 PM 53.6 °F - 30.2 °F 41% 30.25 in 10.0 mi ENE 4.6 mph - N/A   Clear
11:15 PM 53.6 °F - 30.2 °F 41% 30.25 in 10.0 mi ENE 4.6 mph - N/A   Clear
11:35 PM 53.6 °F - 30.2 °F 41% 30.25 in 10.0 mi NE 3.5 mph - N/A   Clear
11:55 PM 51.8 °F - 30.2 °F 44% 30.26 in 10.0 mi NE 4.6 mph - N/A   Clear